Location: Newark
(34.6283°N, 36.0776°E)
Time: 13:24:24
(UTC+00:00)

Tiros 1 despin weight - Pass Details

Date: 23 September 2019
Orbit: 593 x 643 km, 48.2° (Epoch: 21 October)

Event Time Altitude Azimuth Distance (km) Brightness Sun altitude
Rises 16:38:50 0° 286° (WNW) 2,828 ? -14.6°
Reaches altitude 10° 16:42:22 10° 256° (WSW) 1,918 ? -15.3°
Maximum altitude 16:44:12 12° 232° (SW) 1,759 ? -15.6°
Drops below altitude 10° 16:46:02 10° 206° (SSW) 1,912 ? -16.0°
Sets 16:49:34 0° 177° (S) 2,810 ? -16.7°
